User: anonymous   Login
Location: Plymouth
(43.7570°N, 71.6890°W)
Time: 17:40:04
(UTC-05:00)
Language:

Meteor 1-28 Rocket - Orbit

View from above orbital plane
View from above orbital plane
View from above satellite
View from above satellite

Ground track
Ground track

The orbit data is extracted from the following two-line orbital elements,

1 10114U 77057B   15057.85979609  .00002367  00000-0  13073-3 0  9999
2 10114 097.2415 271.1518 0015387 022.4239 337.7663 15.14750327 56098
Epoch (UTC): 26 February 2015 20:38:06
Eccentricity: 0.0015387
inclination: 97.2415°
perigee height: 511 km
apogee height: 532 km
right ascension of ascending node: 271.1518°
argument of perigee: 22.4239°
revolutions per day: 15.14750327
mean anomaly at epoch: 337.7663°
orbit number at epoch: 5609

The dashed part of the orbit path shows where the satellite is in the earth's shadow,  

DLR